• en France
  • Liste des pays
  • À 7 jours
  • Température de l'eau
  • Carte satellitaire
  • Carte météo
  • Widgets météo
  • user-avatar
    Se connecter

    Météo par heure à Banbridge

    Ce jour, 18 Juillet, Mercredi

    Heure Température Précipitation Vent Pression Humidité
    00:00 +13°C° 0 mm 2 m/s 754 mmHg 94%
    01:00 +13°C° 0,1 mm 2 m/s 754 mmHg 94%
    02:00 +13°C° 0,1 mm 2 m/s 754 mmHg 94%
    03:00 +13°C° 0,1 mm 2 m/s 754 mmHg 95%
    04:00 +13°C° 0 mm 2 m/s 754 mmHg 95%
    05:00 +13°C° 0 mm 2 m/s 754 mmHg 95%
    06:00 +13°C° 0 mm 1 m/s 754 mmHg 94%
    07:00 +14°C° 0,1 mm 1 m/s 754 mmHg 90%
    08:00 +15°C° 0,1 mm 2 m/s 755 mmHg 86%
    09:00 +16°C° 0,1 mm 2 m/s 755 mmHg 83%
    10:00 +18°C° 0,1 mm 1 m/s 755 mmHg 77%
    11:00 +19°C° 0,1 mm 1 m/s 755 mmHg 72%
    12:00 +20°C° 0 mm 1 m/s 755 mmHg 68%
    13:00 +20°C° 0,1 mm 1 m/s 756 mmHg 68%
    14:00 +20°C° 0,1 mm 1 m/s 756 mmHg 69%
    15:00 +20°C° 0,1 mm 1 m/s 756 mmHg 69%
    16:00 +19°C° 0,1 mm 1 m/s 756 mmHg 72%
    17:00 +18°C° 0,1 mm 2 m/s 756 mmHg 75%
    18:00 +17°C° 0,1 mm 2 m/s 756 mmHg 78%
    19:00 +16°C° 0,1 mm 2 m/s 756 mmHg 82%
    20:00 +15°C° 0,1 mm 2 m/s 756 mmHg 85%
    21:00 +14°C° 0,1 mm 2 m/s 757 mmHg 89%
    22:00 +13°C° 0 mm 2 m/s 757 mmHg 90%
    23:00 +13°C° 0 mm 2 m/s 757 mmHg 90%

    Demain, 19 Juillet, Jeudi

    Heure Température Précipitation Vent Pression Humidité
    00:00 +12°C° 0 mm 2 m/s 757 mmHg 91%
    01:00 +12°C° 0 mm 2 m/s 757 mmHg 91%
    02:00 +11°C° 0 mm 1 m/s 757 mmHg 92%
    03:00 +11°C° 0 mm 1 m/s 757 mmHg 92%
    04:00 +11°C° 0 mm 1 m/s 757 mmHg 91%
    05:00 +12°C° 0 mm 1 m/s 757 mmHg 90%
    06:00 +12°C° 0 mm 1 m/s 757 mmHg 90%
    07:00 +14°C° 0 mm 2 m/s 757 mmHg 83%
    08:00 +15°C° 0 mm 2 m/s 757 mmHg 77%
    09:00 +17°C° 0 mm 2 m/s 757 mmHg 70%
    10:00 +18°C° 0 mm 2 m/s 757 mmHg 66%
    11:00 +19°C° 0 mm 1 m/s 757 mmHg 63%
    12:00 +20°C° 0 mm 1 m/s 757 mmHg 59%
    13:00 +19°C° 0 mm 2 m/s 757 mmHg 61%
    14:00 +19°C° 0 mm 2 m/s 757 mmHg 63%
    15:00 +19°C° 0 mm 2 m/s 757 mmHg 65%
    16:00 +19°C° 0 mm 2 m/s 757 mmHg 67%
    17:00 +19°C° 0 mm 2 m/s 756 mmHg 68%
    18:00 +19°C° 0 mm 3 m/s 756 mmHg 70%
    19:00 +18°C° 0 mm 3 m/s 756 mmHg 75%
    20:00 +17°C° 0 mm 3 m/s 756 mmHg 80%
    21:00 +14°C° 0 mm 3 m/s 756 mmHg 85%
    22:00 +14°C° 0 mm 3 m/s 756 mmHg 87%
    23:00 +13°C° 0 mm 3 m/s 756 mmHg 90%

    Après-demain, 20 Juillet, Vendredi

    Heure Température Précipitation Vent Pression Humidité
    00:00 +13°C° 0 mm 3 m/s 755 mmHg 92%
    01:00 +13°C° 0,4 mm 3 m/s 755 mmHg 93%
    02:00 +12°C° 0,4 mm 3 m/s 754 mmHg 95%
    03:00 +12°C° 0,4 mm 3 m/s 754 mmHg 96%
    04:00 +12°C° 0,6 mm 3 m/s 754 mmHg 97%
    05:00 +13°C° 0,6 mm 3 m/s 754 mmHg 97%
    06:00 +13°C° 0,6 mm 3 m/s 753 mmHg 97%
    07:00 +13°C° 0,4 mm 3 m/s 753 mmHg 97%
    08:00 +13°C° 0,4 mm 3 m/s 753 mmHg 97%
    09:00 +14°C° 0,4 mm 3 m/s 753 mmHg 97%
    10:00 +16°C° 0,1 mm 3 m/s 753 mmHg 95%
    11:00 +17°C° 0,1 mm 3 m/s 753 mmHg 93%
    12:00 +17°C° 0,1 mm 3 m/s 753 mmHg 92%
    13:00 +18°C° 0,1 mm 3 m/s 753 mmHg 91%
    14:00 +18°C° 0,1 mm 3 m/s 753 mmHg 91%
    15:00 +18°C° 0,1 mm 2 m/s 753 mmHg 90%
    16:00 +18°C° 0,1 mm 3 m/s 753 mmHg 90%
    17:00 +18°C° 0,1 mm 3 m/s 753 mmHg 89%
    18:00 +17°C° 0,1 mm 3 m/s 753 mmHg 88%
    19:00 +17°C° 0 mm 3 m/s 754 mmHg 90%
    20:00 +16°C° 0 mm 3 m/s 754 mmHg 92%
    21:00 +14°C° 0 mm 3 m/s 754 mmHg 93%
    22:00 +13°C° 0 mm 3 m/s 754 mmHg 94%
    23:00 +12°C° 0 mm 3 m/s 754 mmHg 95%

    21 Juillet, Samedi

    Heure Température Précipitation Vent Pression Humidité
    00:00 +11°C° 0 mm 3 m/s 754 mmHg 96%
    01:00 +11°C° 0 mm 3 m/s 754 mmHg 96%
    02:00 +10°C° 0 mm 3 m/s 754 mmHg 96%
    03:00 +10°C° 0 mm 3 m/s 754 mmHg 96%
    04:00 +10°C° 0 mm 3 m/s 754 mmHg 95%
    05:00 +11°C° 0 mm 3 m/s 754 mmHg 94%
    06:00 +11°C° 0 mm 3 m/s 754 mmHg 93%
    07:00 +12°C° 0 mm 3 m/s 755 mmHg 89%
    08:00 +13°C° 0 mm 3 m/s 755 mmHg 85%
    09:00 +14°C° 0 mm 3 m/s 755 mmHg 81%
    10:00 +16°C° 0 mm 3 m/s 755 mmHg 78%
    11:00 +17°C° 0 mm 3 m/s 755 mmHg 75%
    12:00 +17°C° 0 mm 3 m/s 756 mmHg 72%
    13:00 +18°C° 0 mm 3 m/s 756 mmHg 71%
    14:00 +19°C° 0 mm 3 m/s 756 mmHg 70%
    15:00 +20°C° 0 mm 3 m/s 756 mmHg 69%
    16:00 +19°C° 0 mm 3 m/s 756 mmHg 72%
    17:00 +19°C° 0 mm 3 m/s 755 mmHg 74%
    18:00 +19°C° 0 mm 2 m/s 755 mmHg 77%
    19:00 +18°C° 0 mm 2 m/s 756 mmHg 82%
    20:00 +17°C° 0 mm 2 m/s 756 mmHg 86%
    21:00 +16°C° 0 mm 2 m/s 756 mmHg 91%
    22:00 +16°C° 0 mm 2 m/s 756 mmHg 92%
    23:00 +16°C° 0 mm 2 m/s 756 mmHg 93%

    22 Juillet, Dimanche

    Heure Température Précipitation Vent Pression Humidité
    00:00 +15°C° 0 mm 2 m/s 756 mmHg 95%
    01:00 +15°C° 0 mm 2 m/s 755 mmHg 95%
    02:00 +14°C° 0 mm 3 m/s 755 mmHg 95%
    03:00 +14°C° 0 mm 3 m/s 755 mmHg 95%
    04:00 +14°C° 0 mm 3 m/s 755 mmHg 95%
    05:00 +16°C° 0 mm 3 m/s 755 mmHg 95%
    06:00 +16°C° 0 mm 3 m/s 755 mmHg 95%
    07:00 +16°C° 0 mm 3 m/s 755 mmHg 94%
    08:00 +17°C° 0 mm 3 m/s 755 mmHg 92%
    09:00 +17°C° 0 mm 3 m/s 755 mmHg 91%
    10:00 +18°C° 0 mm 4 m/s 755 mmHg 90%
    11:00 +18°C° 0 mm 4 m/s 755 mmHg 88%
    12:00 +19°C° 0 mm 4 m/s 755 mmHg 87%
    13:00 +19°C° 0 mm 4 m/s 755 mmHg 86%
    14:00 +20°C° 0 mm 5 m/s 755 mmHg 84%
    15:00 +20°C° 0 mm 5 m/s 755 mmHg 83%
    16:00 +19°C° 0 mm 5 m/s 754 mmHg 85%
    17:00 +19°C° 0 mm 5 m/s 754 mmHg 87%
    18:00 +18°C° 0 mm 4 m/s 754 mmHg 88%
    19:00 +18°C° 0 mm 4 m/s 754 mmHg 90%
    20:00 +17°C° 0 mm 4 m/s 754 mmHg 92%
    21:00 +17°C° 0 mm 4 m/s 754 mmHg 93%
    22:00 +17°C° 0,1 mm 4 m/s 754 mmHg 94%
    23:00 +17°C° 0,1 mm 4 m/s 754 mmHg 95%

    23 Juillet, Lundi

    Heure Température Précipitation Vent Pression Humidité
    00:00 +15°C° 0,1 mm 4 m/s 754 mmHg 95%
    01:00 +15°C° 0 mm 4 m/s 754 mmHg 96%
    02:00 +16°C° 0 mm 3 m/s 753 mmHg 96%
    03:00 +16°C° 0 mm 3 m/s 753 mmHg 97%
    04:00 +16°C° 0 mm 3 m/s 753 mmHg 96%
    05:00 +16°C° 0 mm 3 m/s 753 mmHg 96%
    06:00 +16°C° 0 mm 3 m/s 753 mmHg 96%
    07:00 +17°C° 0,1 mm 3 m/s 753 mmHg 92%
    08:00 +17°C° 0,1 mm 3 m/s 753 mmHg 89%
    09:00 +18°C° 0,1 mm 3 m/s 753 mmHg 85%
    10:00 +18°C° 0,1 mm 4 m/s 753 mmHg 83%
    11:00 +18°C° 0,1 mm 4 m/s 753 mmHg 81%
    12:00 +18°C° 0,1 mm 4 m/s 753 mmHg 78%
    13:00 +18°C° 0 mm 4 m/s 753 mmHg 77%
    14:00 +18°C° 0 mm 4 m/s 753 mmHg 76%
    15:00 +18°C° 0 mm 3 m/s 753 mmHg 75%
    16:00 +18°C° 0 mm 3 m/s 753 mmHg 76%
    17:00 +17°C° 0 mm 3 m/s 753 mmHg 78%
    18:00 +17°C° 0 mm 3 m/s 753 mmHg 79%
    19:00 +16°C° 0 mm 3 m/s 753 mmHg 82%
    20:00 +14°C° 0 mm 3 m/s 753 mmHg 85%
    21:00 +13°C° 0 mm 3 m/s 753 mmHg 88%
    22:00 +12°C° 0 mm 3 m/s 753 mmHg 90%
    23:00 +12°C° 0 mm 3 m/s 753 mmHg 91%
    Voir plus